Theta_e
303 303 304 304 304 303 303 304 304 305 305 306 305 305 306 307 308 306 305 309 309 309 308 308 308 308 309 309 308 307 307 306 305 304 304 304 304 304 305 305 304 305 306
303 303 304 304 303 303 303 305 305 306 305 306 305 305 304 306 306 305 307 308 307 306 305 305 304 303 304 304 304 304 304 304 304 305 305 304 304 303 303 301 300 301 303
303 303 304 303 303 304 305 305 305 305 305 305 305 306 306 306 306 306 305 303 303 303 304 305 304 304 303 303 302 302 302 303 303 303 304 304 304 304 304 302 301 300 301
302 303 305 305 305 306 304 304 304 304 303 304 304 305 305 304 304 304 303 303 302 301 298 299 301 301 301 300 302 303 304 304 304 304 304 304 304 303 303 301 301 300 302
303 305 305 305 305 304 304 304 304 303 302 298 302 303 304 304 304 305 306 305 303 299 298 298 300 301 300 299 299 303 304 305 305 306 305 304 303 302 302 302 301 301 301
304 304 304 305 305 305 305 305 305 302 301 301 298 298 302 304 304 305 305 305 302 300 300 300 300 300 301 302 303 304 304 302 302 303 303 304 302 303 302 302 302 301 301
304 304 304 305 305 305 305 305 305 305 303 304 303 301 299 299 303 303 304 303 301 301 301 301 301 300 300 300 300 300 301 300 299 300 302 303 302 302 302 301 301 301 301
304 305 305 305 305 305 305 306 305 305 305 306 304 301 299 299 301 302 302 301 301 302 302 302 301 301 301 301 300 301 301 301 300 300 299 300 300 300 302 301 301 301 301
303 305 305 305 304 304 304 304 305 305 306 306 304 300 297 297 300 301 302 302 303 302 301 300 300 300 300 300 300 300 300 300 301 300 300 299 299 299 300 300 301 300 299
304 304 304 304 303 302 304 303 303 305 304 303 302 301 297 297 298 300 301 301 301 301 300 300 300 300 299 300 299 299 299 299 299 300 299 299 299 299 299 299 299 300 299
304 304 304 303 296 298 302 304 303 303 302 302 299 298 297 297 299 299 300 300 300 301 301 301 301 300 299 299 299 299 299 299 300 299 298 298 298 298 298 298 299 300 299
301 299 300 301 302 301 300 298 298 298 298 297 297 297 297 299 299 300 300 301 301 302 302 301 300 299 298 298 299 299 299 299 299 297 296 298 298 297 297 297 298 298 298
304 304 303 304 304 304 303 302 301 301 300 298 299 298 299 300 301 301 301 300 300 299 298 298 298 298 298 297 298 298 299 298 297 297 297 297 297 297 296 297 297 297 298
305 304 305 305 304 304 304 304 302 301 300 299 300 301 300 300 301 301 300 300 300 299 298 298 298 298 298 297 297 297 297 296 297 297 297 296 297 297 296 296 296 296 297
303 303 304 304 304 304 304 304 302 302 301 300 299 301 301 301 301 301 301 300 300 299 298 298 297 297 297 297 296 296 296 295 294 295 296 296 296 296 296 296 296 296 297
303 304 303 303 303 303 303 304 302 302 302 301 301 300 301 301 301 301 300 300 300 299 298 298 297 296 295 295 294 295 294 293 294 295 296 295 296 296 296 296 296 296 296
303 303 303 303 303 303 303 303 303 303 302 302 301 301 302 302 302 301 300 300 299 299 298 298 296 296 296 296 295 293 293 294 296 297 296 295 295 295 296 296 297 296 296
302 303 304 304 304 303 303 303 303 303 303 302 302 301 302 302 302 301 300 300 299 299 298 298 297 296 296 296 296 294 294 295 297 297 296 295 295 295 296 296 296 296 295
304 303 303 303 303 303 303 303 303 303 303 302 302 301 302 302 302 301 300 300 299 299 298 298 298 296 295 295 296 295 294 295 297 297 296 295 295 295 296 296 296 296 296
305 304 303 303 303 303 303 303 303 303 302 303 302 301 302 302 301 301 300 300 299 299 298 298 298 297 295 294 296 295 294 295 297 297 296 295 295 295 296 296 295 295 295
304 304 303 303 303 303 303 303 303 304 303 303 302 302 302 301 301 301 301 300 299 299 298 298 298 297 296 294 295 295 294 296 297 297 296 295 295 296 296 295 294 295 295
304 304 304 304 304 303 304 304 303 304 303 303 303 303 302 302 301 301 300 300 299 299 299 298 298 298 297 295 295 295 293 295 297 297 296 296 295 296 295 295 294 294 295
304 304 304 304 304 304 304 304 304 304 304 303 303 302 302 303 303 301 300 300 299 299 299 298 298 298 297 295 295 294 293 296 297 296 296 296 296 296 294 294 296 296 295
303 304 304 304 304 304 304 304 304 304 303 303 303 303 303 303 302 301 301 300 299 299 299 298 298 298 297 295 295 294 295 297 297 297 296 296 295 295 295 295 296 296 297
304 304 304 304 304 304 304 304 304 304 304 303 303 303 303 302 302 302 300 299 299 299 298 298 298 298 297 295 295 293 295 298 298 297 297 297 297 297 297 297 298 298 300
305 304 304 304 304 304 305 304 304 304 303 303 303 303 303 303 302 302 301 301 301 300 298 298 298 298 297 295 295 293 296 298 298 298 298 297 297 298 298 299 299 300 301
Wind_Speed
18 12 14 13 15 14 14 15 15 16 17 17 14 12 11 13 12 15 14 16 15 14 13 12 11 9 8 8 9 11 12 12 12 12 10 13 14 12 8 9 10 10 12
14 12 12 13 13 12 12 12 16 16 17 19 16 11 11 11 12 13 15 17 16 16 15 14 14 14 12 12 11 11 10 10 9 10 8 13 9 11 12 15 16 15 14
13 9 12 15 15 14 16 18 19 19 24 26 24 21 18 17 15 15 19 22 22 19 17 17 15 15 15 14 13 12 11 10 10 11 12 12 12 14 14 17 18 18 14
13 12 15 18 18 18 18 19 22 25 24 23 23 23 23 22 21 20 21 21 23 25 21 15 14 15 15 13 11 11 10 10 11 12 13 14 14 17 17 19 20 20 18
12 12 13 14 18 19 19 19 19 20 21 21 20 19 17 17 17 12 13 18 22 25 22 19 17 17 15 13 11 11 10 14 14 15 17 14 17 17 16 19 22 19 15
10 9 13 15 16 17 18 17 17 19 21 23 23 19 15 15 16 13 10 12 18 21 24 25 23 20 17 15 14 11 13 17 17 16 12 13 15 15 17 19 20 20 21
10 15 15 15 15 14 13 12 11 12 13 17 20 21 19 14 12 13 13 13 19 18 20 22 21 21 20 18 15 14 12 20 18 17 16 15 15 16 17 19 18 17 17
13 14 15 14 15 16 13 11 9 8 8 10 13 19 22 15 13 12 10 11 12 14 17 20 20 19 20 19 14 12 12 14 15 17 17 15 16 15 14 18 16 16 13
13 15 13 11 10 11 15 14 10 8 6 8 10 19 23 17 14 10 9 10 12 14 16 17 18 16 16 17 15 12 13 13 13 15 17 18 18 16 15 16 15 13 17
12 10 9 9 10 10 8 11 13 9 8 8 11 18 19 17 13 12 12 13 11 15 14 16 17 16 16 16 17 18 11 14 16 14 20 20 21 19 15 14 16 11 13
8 5 7 11 16 13 7 7 11 11 10 10 14 16 15 16 18 18 15 15 17 17 16 17 18 17 17 19 17 15 13 18 14 20 23 22 21 22 22 15 12 9 13
11 13 14 16 16 19 20 18 17 17 14 13 13 13 13 15 15 14 13 20 18 17 18 18 18 18 18 19 18 16 18 17 19 25 27 25 28 24 23 17 10 11 11
8 8 8 9 11 12 13 16 18 20 23 19 18 16 15 14 17 16 17 19 19 18 18 19 18 18 19 21 18 17 17 20 26 28 28 28 28 24 20 16 8 6 7
5 7 4 5 7 9 10 11 12 15 20 22 17 18 16 14 18 19 16 18 22 19 17 18 20 18 18 20 19 19 19 22 23 25 27 29 32 21 17 13 14 11 7
1 3 4 5 6 8 11 9 8 11 14 19 18 14 16 16 15 16 18 17 21 21 18 22 26 28 27 26 23 21 23 27 27 24 28 29 27 19 16 12 11 11 9
2 2 3 4 3 9 11 8 6 9 12 13 19 12 13 15 11 12 13 14 18 23 23 24 28 29 27 27 26 23 26 29 27 26 24 26 23 17 15 12 10 10 10
3 3 1 5 5 6 10 8 9 9 11 10 15 15 11 11 12 14 14 15 18 22 24 25 29 29 29 29 29 27 27 26 28 26 24 21 21 16 14 12 10 10 10
2 4 4 6 9 9 7 7 11 11 11 9 10 13 8 9 12 14 15 16 17 21 23 25 28 29 31 33 32 29 27 30 32 28 23 18 17 14 13 11 10 9 9
1 3 3 6 7 7 9 7 10 12 10 8 6 9 7 9 11 13 15 16 16 19 21 24 27 29 32 35 33 30 27 32 32 31 25 20 17 12 12 11 7 8 8
2 2 4 5 3 8 12 4 8 12 13 8 5 7 8 8 10 12 14 14 15 19 19 23 27 30 34 36 36 32 30 32 33 32 27 18 15 12 9 8 8 8 7
5 4 5 7 6 7 9 10 11 13 14 10 7 11 5 9 11 15 14 14 17 20 20 22 27 30 36 37 38 34 30 32 32 33 26 18 14 11 8 8 7 5 6
8 8 11 7 8 7 10 10 10 12 11 13 9 10 3 9 12 13 13 15 16 20 21 21 25 29 36 38 38 34 32 33 31 34 22 15 13 10 9 8 8 7 8
6 8 7 7 6 8 9 9 9 13 11 9 7 5 6 13 16 9 12 15 16 18 20 20 23 28 35 37 36 34 32 34 34 25 18 15 13 10 10 10 13 9 8
8 5 5 6 8 8 14 9 11 13 8 12 4 8 11 12 8 5 15 9 12 16 17 18 22 27 34 36 35 33 30 33 29 21 18 18 15 12 12 13 11 11 11
5 4 4 5 7 8 8 10 11 4 8 7 4 15 14 7 9 18 6 6 5 10 13 15 19 26 33 35 34 32 29 31 22 20 17 17 16 15 15 17 14 12 18
9 6 4 1 2 4 6 6 8 9 10 7 8 7 8 10 11 11 9 12 17 9 6 11 17 24 31 34 33 30 28 29 22 22 22 22 21 20 18 13 13 19 16
Wind_Direction
348 17 8 354 352 1 4 5 360 355 353 345 345 347 356 3 6 12 14 19 18 18 14 10 4 355 345 333 329 326 326 324 324 322 337 359 14 7 350 350 338 328 315
353 4 6 354 4 21 31 12 13 19 18 28 24 18 12 5 10 24 26 19 12 10 16 18 23 23 17 13 20 32 25 13 354 344 350 347 353 357 357 355 348 333 310
14 31 16 29 52 59 50 49 41 47 52 52 49 50 47 44 43 46 57 55 45 34 26 27 28 26 25 23 29 30 30 25 15 3 357 356 353 345 340 343 342 340 322
34 48 53 61 65 65 58 59 61 62 60 53 53 54 57 58 60 63 60 51 42 30 22 17 11 4 360 6 8 1 1 2 357 351 344 341 342 343 337 341 344 344 346
61 68 68 69 76 79 73 64 60 57 53 52 53 48 47 46 36 34 43 38 34 28 36 34 33 28 22 9 357 7 7 354 343 334 320 342 347 344 346 344 342 343 348
80 57 79 85 79 77 73 65 59 56 56 52 48 39 35 39 29 31 42 35 34 41 47 44 42 37 35 28 25 19 14 9 1 352 350 343 339 338 335 337 338 342 344
83 85 90 81 69 56 50 47 41 41 49 45 39 35 29 24 34 32 47 51 44 41 35 29 25 21 24 29 30 32 44 29 25 11 357 350 342 336 331 333 330 330 330
106 94 82 70 41 31 32 25 19 19 25 33 22 22 21 24 30 43 53 42 39 25 12 7 7 6 357 356 5 14 10 7 9 11 6 354 339 333 322 327 324 323 324
107 89 66 46 42 28 21 12 17 27 19 36 13 15 15 24 26 19 10 9 14 13 4 3 2 0 6 2 358 341 347 345 341 356 360 350 350 341 332 325 323 328 335
90 68 36 30 14 3 9 18 29 39 41 51 17 12 12 21 14 17 17 22 21 11 13 17 19 17 11 5 2 355 355 357 343 339 352 347 342 340 339 334 343 332 342
85 63 47 26 39 38 13 354 0 9 14 15 1 9 21 31 39 39 32 19 10 12 17 16 17 15 11 1 360 1 356 358 359 351 350 343 348 346 342 325 324 319 324
83 70 78 73 60 57 54 53 50 43 36 33 27 29 44 49 42 33 31 27 18 17 24 19 15 11 6 4 3 4 358 358 348 347 348 349 347 349 344 339 315 300 304
73 74 71 49 43 40 44 48 46 42 39 42 45 48 60 53 38 36 34 22 15 20 16 13 7 9 6 6 359 4 3 352 347 347 347 342 346 340 336 331 319 338 332
43 23 2 354 19 14 15 24 30 35 34 37 45 52 49 42 36 39 28 24 18 11 15 15 9 2 2 9 4 4 359 354 346 340 335 339 349 342 344 336 344 343 345
102 29 16 20 2 350 350 360 18 27 26 35 34 33 33 33 31 26 22 20 15 10 6 6 7 5 359 358 360 357 349 346 347 342 341 346 349 347 345 349 337 345 347
97 23 358 355 345 3 1 357 17 22 14 23 24 30 24 10 8 16 16 9 9 7 4 6 7 7 6 2 0 352 348 350 353 348 343 350 348 346 343 347 345 342 339
186 209 305 347 15 7 2 4 8 5 360 11 27 29 20 18 11 5 5 3 3 3 9 11 11 10 7 3 1 357 354 356 353 351 349 349 348 346 345 348 349 354 351
293 232 285 342 340 351 345 4 1 355 344 352 13 27 14 3 356 359 2 359 4 5 9 10 11 9 6 2 360 358 359 359 1 360 358 353 347 347 348 346 350 354 349
329 175 288 350 335 339 341 354 349 352 342 348 349 16 11 347 345 355 359 357 1 1 5 7 7 6 4 1 359 359 0 1 2 1 358 360 351 345 351 351 1 354 351
293 313 340 352 293 4 8 326 336 338 339 348 345 351 351 345 347 358 352 350 353 359 359 3 5 4 3 1 360 359 360 1 2 2 359 2 0 357 356 358 359 359 11
288 308 307 312 292 314 337 338 323 322 324 340 326 339 330 352 341 347 345 347 351 358 356 359 1 3 2 359 358 357 360 359 0 358 357 3 9 11 15 5 8 30 35
274 306 312 327 351 355 346 332 335 342 327 319 308 334 311 351 333 331 339 347 350 359 359 355 357 0 1 359 356 357 358 357 356 355 360 12 20 27 23 28 54 60 68
295 318 315 316 347 336 339 336 341 340 338 347 324 311 343 339 340 315 346 345 348 354 357 349 352 355 357 358 359 359 360 359 355 6 18 25 24 36 36 59 66 59 85
328 312 317 341 339 335 337 346 342 333 342 357 14 356 341 344 332 354 340 328 344 346 349 345 350 355 354 358 0 3 4 2 6 24 32 37 44 55 60 63 59 70 68
335 279 318 347 344 345 337 335 334 0 353 352 330 340 345 353 330 332 322 310 331 334 328 341 351 355 357 1 3 6 6 6 25 33 40 44 48 48 59 65 59 71 71
326 311 343 319 345 338 355 3 359 354 354 357 12 5 337 324 330 334 302 308 313 335 316 340 353 357 1 4 6 9 11 13 34 41 52 54 57 54 44 51 72 61 57